RH
36 52 88 85 84 84 85 83 81 83 86 84 81 81 80 83 84 85 84 82 78 70 67 67 68 68 71 69 74 75 76 76 76 72 70 65 66 72 78 77 76 53 79
35 45 91 88 88 86 86 85 82 83 81 80 83 80 84 85 84 84 80 75 72 68 68 67 69 71 73 79 79 80 80 79 78 75 72 67 66 71 74 75 82 61 76
36 43 54 90 91 92 88 84 82 82 81 81 81 82 84 84 82 80 77 72 71 70 70 72 73 77 79 80 77 79 81 80 79 77 76 40 67 72 74 75 76 76 74
32 35 54 91 90 89 92 91 91 85 84 82 81 79 80 82 79 78 77 76 75 73 70 71 75 80 81 79 78 76 77 78 78 78 45 40 37 70 72 76 75 77 74
32 38 62 88 87 87 87 87 88 89 89 88 84 81 78 76 76 78 80 78 73 72 73 74 79 83 84 84 79 76 78 79 79 68 39 47 45 63 71 70 74 77 80
28 38 75 84 84 83 79 82 85 86 87 88 88 86 85 83 83 81 80 78 78 76 78 78 79 78 79 82 78 76 76 77 84 41 44 43 44 71 69 69 76 76 81
22 31 41 82 82 78 77 79 82 83 85 86 86 85 83 82 82 81 78 79 81 83 82 82 84 80 82 83 84 85 86 84 56 39 54 74 68 78 74 72 78 80 80
25 28 36 74 80 80 80 82 84 84 84 86 88 87 86 85 85 85 86 85 84 84 83 85 86 87 87 84 81 82 82 84 54 47 54 57 73 75 72 73 78 81 80
24 26 29 36 61 81 83 85 87 86 84 84 85 86 86 86 85 84 83 82 82 82 83 83 83 83 80 78 75 75 77 77 57 35 35 59 78 73 73 72 74 77 81
25 27 29 31 31 38 51 82 84 86 85 83 82 82 83 85 80 77 81 81 80 80 80 80 80 81 80 79 76 75 75 80 51 34 52 68 74 71 69 74 76 76 77
28 33 32 29 34 35 31 53 78 85 84 86 79 81 75 45 44 54 80 78 77 77 77 77 77 76 76 79 76 70 76 38 36 32 44 78 75 71 69 69 72 75 77
32 31 33 40 39 36 25 35 37 34 36 40 41 45 37 48 48 46 64 78 76 75 74 75 76 74 76 34 43 71 41 34 36 30 39 76 70 67 68 69 71 72 73
28 28 30 46 45 41 36 29 27 28 32 36 44 47 44 46 47 43 42 44 49 67 41 55 48 40 41 42 36 37 34 35 30 27 52 62 56 56 57 60 64 69 71
24 26 32 44 50 45 32 28 29 28 33 33 39 44 46 41 45 45 38 38 39 33 39 39 38 42 47 45 41 41 38 33 25 26 43 59 54 55 54 55 58 61 68
24 25 29 41 52 43 44 34 36 38 34 40 37 40 41 42 46 41 41 37 35 33 34 36 36 36 39 39 37 35 33 32 32 28 25 62 58 64 58 55 59 62 64
23 26 29 36 49 43 34 39 38 38 35 35 34 36 42 44 48 43 40 37 34 30 30 35 38 39 39 36 36 36 35 30 27 30 25 38 64 63 61 58 61 61 59
22 24 29 36 43 44 36 34 31 29 32 30 30 37 38 41 42 45 40 38 35 36 46 40 39 38 38 36 36 33 32 36 33 32 30 26 40 68 66 63 56 54 54
22 23 27 33 41 42 33 31 28 26 30 28 30 32 36 40 42 45 39 40 39 42 39 38 38 38 38 36 38 34 31 29 31 33 31 30 25 25 63 64 58 55 54
22 24 28 36 41 37 34 30 32 35 32 27 30 29 31 36 38 42 40 40 45 41 44 42 41 44 42 40 36 35 35 30 32 25 31 35 36 30 26 69 66 63 57
29 29 31 36 38 36 33 33 28 27 25 26 26 25 32 34 37 40 39 42 41 40 41 42 50 45 46 45 35 34 40 33 32 34 30 27 31 38 35 37 41 40 63
33 33 34 36 39 31 28 28 25 27 25 26 24 31 35 34 37 41 36 37 40 38 44 50 48 52 50 48 48 47 44 44 43 35 35 33 32 32 39 35 34 29 38
32 30 29 28 29 26 23 27 31 33 29 29 31 33 32 34 35 34 43 38 41 39 47 50 52 48 48 48 52 50 54 44 38 38 36 38 44 33 33 37 38 37 30
34 31 28 29 30 34 34 26 28 28 29 27 28 29 29 35 36 39 42 39 44 45 43 49 49 52 50 48 52 52 58 54 44 36 45 42 44 41 38 35 40 36 34
38 35 32 31 30 32 37 32 38 33 34 33 35 33 36 41 37 32 33 36 45 46 51 51 41 52 55 52 46 39 54 67 76 72 46 51 48 46 52 40 36 35 35
38 39 36 31 32 34 37 38 38 40 37 36 38 42 39 33 31 29 32 39 47 46 49 55 61 66 60 65 66 69 66 58 59 76 74 58 57 53 51 57 44 36 35
37 38 36 32 29 31 36 40 43 46 44 38 37 37 33 34 32 35 33 42 48 51 54 63 65 71 73 72 74 81 88 94 93 95 97 92 95 86 80 70 61 54 49
Wind_Speed
11 12 7 7 5 5 4 5 7 9 10 9 6 6 5 10 11 13 13 12 11 10 9 9 7 8 9 9 10 9 9 7 6 6 5 2 4 6 6 9 12 3 9
12 15 8 10 10 6 6 6 8 8 10 11 11 9 11 13 14 14 13 10 9 9 9 10 9 9 7 9 8 7 7 6 5 4 6 8 4 7 4 6 10 9 8
12 15 15 12 12 12 8 8 7 9 12 12 12 12 12 12 11 11 9 6 8 8 9 8 9 9 8 7 7 6 6 6 6 6 10 11 5 9 6 2 6 5 2
11 12 15 10 11 11 11 11 10 9 8 8 9 9 10 10 10 9 7 6 7 7 7 7 8 8 6 6 5 5 6 6 8 10 10 9 3 9 7 3 1 1 1
11 15 12 9 9 9 10 9 10 10 10 10 9 8 8 7 6 7 6 5 5 5 5 6 8 4 3 3 5 5 5 6 9 12 14 5 9 7 7 1 8 7 5
11 16 11 9 10 9 10 10 9 9 9 9 10 8 9 8 8 8 7 7 7 7 8 7 6 5 4 4 4 4 5 7 10 13 11 4 6 8 4 3 4 3 2
12 13 12 9 9 8 9 9 10 10 9 9 8 9 8 7 8 8 7 7 8 8 8 7 7 7 6 6 5 5 6 8 10 12 2 3 6 9 6 7 6 7 6
12 11 10 9 7 7 8 8 8 8 10 9 9 8 8 9 9 9 9 9 9 8 8 8 7 7 7 6 5 6 7 9 10 10 2 4 9 7 7 8 5 5 6
10 9 11 11 10 7 7 7 7 8 8 7 7 7 7 7 7 7 8 8 7 7 7 6 5 4 3 2 3 4 6 10 10 7 8 8 11 7 8 5 5 4 6
8 8 8 8 8 8 11 9 8 7 6 6 6 5 4 6 7 6 6 7 5 5 4 3 2 1 2 3 3 5 9 12 12 5 3 6 8 7 7 7 7 8 7
8 7 5 7 5 4 4 9 9 8 7 7 8 7 8 4 2 9 10 5 3 2 1 1 2 4 8 10 10 8 10 9 5 7 6 9 7 3 5 5 5 8 8
9 9 9 5 5 3 2 3 4 4 2 3 4 4 3 4 5 5 4 9 8 7 9 10 9 10 11 8 6 11 7 6 7 6 2 9 6 4 6 5 5 5 4
12 9 8 6 4 1 5 4 0 1 2 2 1 5 5 4 4 4 2 4 3 10 5 9 7 7 8 6 7 7 7 7 6 5 8 10 5 6 7 6 5 5 5
11 9 8 6 5 3 3 2 3 2 3 2 7 3 5 4 5 5 4 6 6 5 6 6 5 6 7 8 8 8 8 7 6 4 7 9 2 5 6 6 5 5 3
8 9 9 8 6 4 3 2 2 3 1 5 2 4 3 5 5 6 6 6 6 6 6 7 7 8 8 8 8 8 9 8 8 6 2 10 3 4 4 4 3 3 3
10 8 8 8 7 5 4 1 2 2 0 3 1 4 2 3 4 6 6 7 7 7 7 7 9 9 9 9 9 9 9 10 9 9 7 8 9 5 4 3 4 4 3
7 7 6 6 6 6 5 3 3 1 2 1 0 2 0 3 4 6 7 7 8 8 8 8 9 9 9 9 11 9 9 10 10 10 8 8 10 11 7 4 3 3 2
5 4 4 5 6 8 4 2 2 1 3 3 3 2 2 3 5 6 7 8 8 8 9 9 9 10 10 10 9 9 10 9 11 11 10 9 8 8 10 10 6 4 3
4 5 4 6 6 6 5 4 1 2 5 4 3 4 3 5 6 7 7 9 9 9 9 9 10 10 10 11 12 11 10 10 10 11 13 12 11 10 7 15 12 9 7
6 3 1 4 4 1 2 2 4 4 5 3 4 4 6 7 7 8 8 10 9 10 10 9 11 11 11 11 13 12 11 10 10 10 12 12 12 12 11 10 9 9 13
5 5 6 6 6 4 3 4 4 3 4 5 5 6 6 7 9 10 9 10 10 10 10 11 11 12 11 11 12 11 12 13 13 11 10 11 13 13 12 11 8 9 10
9 8 6 6 5 4 2 5 3 5 5 6 5 7 8 6 8 9 8 10 12 10 11 11 11 10 11 10 12 12 13 12 12 14 13 13 14 11 12 13 12 12 7
10 8 8 7 7 7 7 3 5 5 5 5 6 9 9 11 11 10 10 10 11 11 10 10 11 13 11 11 13 12 13 14 11 10 10 12 12 10 11 12 13 13 11
9 7 7 6 6 6 7 6 5 5 7 8 8 9 11 14 14 12 12 12 11 10 11 10 10 11 12 12 10 11 11 10 8 11 13 7 7 9 7 10 10 11 12
7 6 5 5 5 6 5 5 6 9 9 9 9 10 12 12 13 14 13 12 11 10 10 10 8 10 9 8 8 10 11 10 9 5 10 9 7 4 5 3 9 8 11
5 5 5 6 7 5 7 8 8 9 9 9 10 10 9 10 11 13 14 11 11 9 7 6 6 6 5 5 5 6 4 3 4 3 3 6 7 6 10 9 7 9 6
Wind_Direction
112 110 104 78 83 128 88 49 39 51 46 61 81 88 87 86 82 83 81 75 70 67 48 30 29 21 26 35 38 34 25 22 18 14 352 38 92 72 18 350 350 302 97
105 105 85 63 54 76 70 54 41 53 60 57 54 63 86 90 84 79 74 64 61 50 44 28 22 32 29 47 46 49 36 31 11 346 294 244 172 119 68 1 11 70 95
121 120 94 62 63 70 68 67 64 63 63 65 69 79 98 100 97 90 83 72 55 35 31 27 29 45 42 44 45 36 25 14 342 305 281 270 155 128 107 32 21 46 73
108 100 87 76 73 75 79 81 78 84 86 82 83 85 92 98 100 102 89 56 41 29 21 22 38 51 39 24 14 6 8 351 328 305 268 258 267 120 122 152 18 2 251
104 93 92 82 82 82 79 79 74 74 72 71 78 83 94 96 107 86 75 69 64 51 44 33 42 56 43 26 13 7 356 331 306 287 266 342 335 138 104 16 214 202 216
118 103 101 100 85 79 79 81 86 82 77 73 73 79 75 72 64 59 50 47 47 49 40 44 43 29 3 2 359 346 328 303 295 274 298 263 277 56 30 311 306 301 188
108 113 110 85 85 88 86 79 74 75 73 69 71 75 77 79 76 66 58 55 47 43 46 40 40 39 31 25 20 2 338 312 283 282 265 119 331 25 336 298 290 307 295
117 113 126 120 109 102 92 87 83 78 72 72 75 76 79 74 74 77 75 73 69 67 63 57 56 55 58 48 23 358 335 314 290 250 193 307 59 7 308 289 293 300 322
127 134 140 137 126 124 119 108 90 79 82 84 87 91 91 91 87 86 87 81 77 71 66 68 72 74 68 44 2 333 306 294 291 308 319 62 45 11 345 295 265 298 333
148 150 133 151 145 156 145 115 107 107 112 114 119 122 149 155 144 143 127 84 72 72 80 95 114 187 240 238 244 273 282 280 264 285 157 88 57 357 341 1 353 289 255
162 142 145 128 105 92 79 123 156 153 173 166 166 174 229 234 180 166 84 98 112 120 123 179 258 257 249 237 221 227 260 261 329 286 85 88 78 334 314 331 333 334 305
173 169 142 140 102 100 100 111 124 135 118 38 29 11 323 18 27 322 157 174 188 198 211 210 210 234 244 271 203 216 248 345 296 289 63 80 44 312 288 286 294 305 327
175 176 149 144 135 288 66 11 246 275 67 104 125 8 1 345 28 306 344 199 201 201 259 208 209 241 349 311 310 313 302 287 268 291 94 74 27 312 290 276 272 271 290
163 167 159 149 166 190 306 333 13 246 46 301 45 354 355 334 1 356 332 334 304 325 325 286 304 306 280 280 285 282 277 277 275 287 115 109 82 288 283 277 258 252 251
164 166 165 169 195 182 197 331 335 307 197 30 332 48 5 342 1 336 342 315 319 311 301 306 307 302 294 276 264 274 273 269 271 273 257 133 151 262 243 225 227 243 237
181 174 181 185 193 191 241 171 300 202 243 215 99 63 44 347 351 321 325 315 307 311 314 317 315 310 302 298 277 258 266 277 265 257 264 160 166 211 257 239 191 172 175
194 207 196 194 181 204 209 211 286 356 310 274 271 163 275 290 329 314 306 309 309 317 306 285 288 284 278 278 279 255 253 252 258 264 252 257 174 186 197 232 223 188 168
245 247 204 198 191 200 223 200 282 277 272 261 265 299 317 309 303 297 296 301 307 306 295 295 292 287 284 279 268 268 274 252 249 239 241 245 250 203 182 185 201 203 170
276 309 249 189 208 200 172 272 183 264 245 264 321 286 336 313 305 297 295 298 304 294 288 289 288 284 279 274 271 269 255 259 260 244 235 232 237 256 230 168 176 188 184
42 318 238 167 184 50 316 234 252 240 264 267 271 310 345 319 326 310 298 291 293 289 288 290 297 294 291 288 288 283 288 272 245 248 248 241 233 228 238 187 185 201 193
79 92 66 113 42 300 304 323 304 295 326 288 308 9 325 346 324 313 306 307 301 293 298 298 290 283 279 281 275 268 257 252 251 249 248 246 244 227 217 231 220 224 192
62 62 76 80 50 13 17 349 340 321 309 326 289 348 300 334 304 303 321 302 304 301 295 289 286 284 278 275 277 280 275 266 247 229 225 229 233 238 221 216 219 236 248
60 59 67 68 58 45 356 10 345 302 268 303 329 305 311 307 307 305 295 308 301 296 288 293 295 290 287 282 284 277 279 271 274 259 247 219 235 222 238 224 208 224 222
76 73 76 55 48 44 30 8 346 319 309 329 292 313 330 310 294 308 310 308 305 299 292 290 290 313 308 293 287 284 294 316 303 290 282 285 226 254 240 241 227 209 226
66 60 40 23 29 30 359 332 319 318 324 325 312 302 322 307 321 315 318 314 310 299 305 308 342 352 342 337 356 342 324 312 321 326 281 277 284 275 276 251 274 251 219
78 39 10 345 343 344 338 334 333 321 306 312 317 315 317 324 315 318 319 316 299 292 333 9 9 17 10 18 7 14 12 360 357 351 329 342 344 346 338 335 320 309 289